Tracking 19490 objects as of 24-Jan-2019
HD Live streaming from Space Station
objects crossing your sky now

OBJECT K

Track OBJECT K now!
10-day predictions


NORAD ID: 43728
Int'l Code: 2018-096K
Perigee: 480.5 km
Apogee: 507.6 km
Inclination: 97.5 °
Period: 94.3 minutes
Semi major axis: 6865 km
RCS: Unknown
Launch date: November 29, 2018
Source: (TBD)
Launch site: SRIHARIKOTA (SRI)
aabbcc
Your satellite tracking list
Your tracking list is empty




NASA's NSSDC Master Catalog

Two Line Element Set (TLE):
1 43728U 18096K   19023.69410705  .00001573  00000-0  63197-4 0  9991
2 43728  97.4789  93.7501 0019741 128.2296 232.0723 15.26304280  8465
Source of the keplerian elements: AFSPC